Location: Constantia
(34.0183°S, 18.4411°E)
Time: 23:21:03
(UTC+00:00)

Lacrosse 5 rocket - Pass Details

Date: 17 February 2020
Orbit: 461 x 636 km, 57.0° (Epoch: 05 April)

Event Time Altitude Azimuth Distance (km) Brightness Sun altitude
Exits shadow 02:43:11 15° 15° (NNE) 1,509 3.4 -19.8°
Maximum altitude 02:45:26 23° 58° (ENE) 1,150 3.2 -19.4°
Drops below altitude 10° 02:48:33 10° 111° (ESE) 1,733 5.1 -18.8°
Sets 02:51:00 0° 126° (SE) 2,596 6.4 -18.4°
